ALCOMSAT 1

Last updated on Mon Nov 03 2025 00:02:58 GMT+0000 (Coordinated Universal Time)

1 43039U 17078A 25306.39048786 -.00000173 00000+0 00000+0 0 9993 2 43039 0.0564 112.7410 0003297 107.1752 297.8131 1.00272000 29022
UTC large
Height (km)
Speed (km/s)
/
Latitude / Longitude
Inclination (degrees)
Orbital Period (minutes)
Azimuth
Elevation
Range (km)
Doppler Factor

Next 0 passes for location: London (51.5072 / 0.1276)

Sorry there are no passes over London.